Watertown, WI

6:16 AM CST on November 13, 2019 (GMT -0600)
Watertown Municipal

Weather History for KRYV - September, 2019

Change the Weather History Date:

Thursday, September 19, 2019

  Actual Average Record
Temperature  
Mean Temperature 68 °F -  
Max Temperature 74 °F 72 °F 93 °F (1948)
Min Temperature 62 °F 50 °F 32 °F (2012)
Cooling Degree Days 2    
Growing Degree Days 18 (Base 50)    
Moisture  
Dew Point 66 °F    
Average Humidity 98    
Maximum Humidity 100    
Minimum Humidity 85    
Precipitation  
Precipitation 0.00 in - - ()
Sea Level Pressure  
Sea Level Pressure 30.07 in    
Wind  
Wind Speed 2 mph ()    
Max Wind Speed 9 mph    
Max Gust Speed 16 mph    
Visibility 9.2 miles    
Events Rain , Thunderstorm    
Averages and records for this station are not official NWS values.
T = Trace of Precipitation, MM = Missing Value Source: Averaged Metar Reports

Daily Weather History Graph

Daily Weather History Graph

Search for Another Location

Airport or City:

Astronomy

Sep. 19, 2019 Rise Set
Actual Time 6:38 AM CDT 6:58 PM CDT
Civil Twilight 6:10 AM CDT 7:26 PM CDT
Nautical Twilight 5:36 AM CDT 7:59 PM CDT
Astronomical Twilight 5:02 AM CDT 8:34 PM CDT
Moon 9:58 PM CDT (9/19) 11:49 AM CDT (9/19)
Length of Visible Light 13h 16m
Length of Day
12h 19m
Waning Gibbous, 74% of the Moon is Illuminated
Sep 19
Waning Gibbous
Sep 21
Last Quarter
Sep 28
New
Oct 5
First Quarter
Oct 13
Full

Hourly Weather History & Observations

Time (CDT) Temp. Dew Point Humidity Pressure Visibility Wind Dir Wind Speed Gust Speed Precip Events Conditions
12:35 AM 65.7 °F 65.7 °F 100% 30.07 in 10.0 mi Calm Calm - N/A   Clear
12:55 AM 64.9 °F 64.9 °F 100% 30.07 in 10.0 mi Calm Calm - N/A   Clear
1:15 AM 64.9 °F 64.9 °F 100% 30.08 in 10.0 mi Calm Calm - N/A   Clear
1:35 AM 64.6 °F 64.6 °F 100% 30.07 in 10.0 mi SSE 3.5 mph - N/A   Clear
1:55 AM 64.4 °F 64.4 °F 100% 30.06 in 10.0 mi SE 3.5 mph - N/A   Clear
2:15 AM 64.4 °F 64.4 °F 100% 30.06 in 10.0 mi Calm Calm - N/A   Scattered Clouds
2:35 AM 64.4 °F 64.4 °F 100% 30.06 in 10.0 mi SSE 4.6 mph - N/A   Scattered Clouds
2:55 AM 64.2 °F 64.2 °F 100% 30.05 in 10.0 mi SSE 4.6 mph - N/A   Clear
3:15 AM 63.9 °F 63.9 °F 100% 30.05 in 10.0 mi SSE 5.8 mph - N/A   Clear
3:35 AM 64.0 °F 64.0 °F 100% 30.04 in 10.0 mi SE 3.5 mph - N/A   Clear
3:55 AM 64.0 °F 64.0 °F 100% 30.03 in 10.0 mi SSE 3.5 mph - N/A   Clear
4:15 AM 63.5 °F 63.5 °F 100% 30.04 in 10.0 mi SSE 3.5 mph - N/A   Clear
4:55 AM 62.8 °F 62.8 °F 100% 30.04 in 10.0 mi South 3.5 mph - N/A   Clear
5:15 AM 62.4 °F 62.4 °F 100% 30.03 in 10.0 mi South 4.6 mph - N/A   Clear
5:35 AM 62.6 °F 62.6 °F 100% 30.03 in 10.0 mi Calm Calm - N/A   Clear
5:55 AM 62.6 °F 62.6 °F 100% 30.04 in 10.0 mi Calm Calm - N/A   Clear
6:15 AM 62.4 °F 62.4 °F 100% 30.04 in 10.0 mi Calm Calm - N/A   Clear
6:35 AM 62.6 °F 62.6 °F 100% 30.05 in 10.0 mi Calm Calm - N/A   Clear
6:55 AM 62.8 °F 62.8 °F 100% 30.06 in 10.0 mi Calm Calm - N/A   Mostly Cloudy
7:15 AM 64.2 °F 64.2 °F 100% 30.06 in 10.0 mi Calm Calm - N/A   Scattered Clouds
7:35 AM 65.3 °F 65.1 °F 99% 30.07 in 10.0 mi Calm Calm - N/A   Scattered Clouds
7:55 AM 66.6 °F 64.4 °F 93% 30.07 in 10.0 mi South 5.8 mph - N/A   Mostly Cloudy
8:15 AM 67.1 °F 64.9 °F 93% 30.09 in 10.0 mi SSW 4.6 mph - N/A Thunderstorm Overcast
8:55 AM 64.6 °F 64.6 °F 100% 30.11 in 3.0 mi Calm Calm - N/A Rain , Thunderstorm Thunderstorms and Rain
9:15 AM 66.2 °F 66.2 °F 100% 30.10 in 7.0 mi South 3.5 mph - N/A Rain , Thunderstorm Light Thunderstorms and Rain
9:35 AM 65.8 °F 65.8 °F 100% 30.11 in 5.0 mi Calm Calm - N/A Rain , Thunderstorm Heavy Thunderstorms and Rain
9:55 AM 65.7 °F 65.7 °F 100% 30.11 in 10.0 mi ESE 3.5 mph - N/A   Overcast
10:15 AM 66.2 °F 66.2 °F 100% 30.11 in 10.0 mi Calm Calm - N/A Rain , Thunderstorm Light Thunderstorms and Rain
10:35 AM 66.4 °F 66.4 °F 100% 30.12 in 10.0 mi Calm Calm - N/A   Overcast
10:55 AM 66.7 °F 66.7 °F 100% 30.12 in 10.0 mi Calm Calm - N/A   Scattered Clouds
11:15 AM 67.5 °F 67.5 °F 100% 30.12 in 10.0 mi Calm Calm - N/A   Mostly Cloudy
11:35 AM 68.0 °F 68.0 °F 100% 30.11 in 10.0 mi SSE 5.8 mph - N/A   Scattered Clouds
11:55 AM 68.0 °F 68.0 °F 100% 30.11 in 10.0 mi SSE 6.9 mph - N/A Rain Light Rain
12:15 PM 67.1 °F 67.1 °F 100% 30.10 in 7.0 mi SSE 4.6 mph - N/A Rain Light Rain
12:35 PM 67.5 °F 67.5 °F 100% 30.09 in 10.0 mi South 3.5 mph - N/A   Scattered Clouds
12:55 PM 68.2 °F 68.2 °F 100% 30.07 in 10.0 mi SSE 6.9 mph - N/A   Scattered Clouds
1:15 PM 69.1 °F 69.1 °F 100% 30.05 in 10.0 mi SE 8.1 mph - N/A   Clear
1:35 PM 70.9 °F 70.9 °F 100% 30.05 in 10.0 mi SSE 9.2 mph 16.1 mph N/A   Scattered Clouds
1:55 PM 72.7 °F 71.2 °F 95% 30.06 in 10.0 mi South 3.5 mph - N/A   Clear
2:15 PM 73.4 °F 69.4 °F 87% 30.07 in 10.0 mi WSW 4.6 mph - N/A   Scattered Clouds
2:35 PM 73.0 °F 69.4 °F 88% 30.06 in 10.0 mi South 9.2 mph - N/A   Scattered Clouds
2:55 PM 73.9 °F 69.1 °F 85% 30.04 in 10.0 mi SSE 8.1 mph - N/A   Scattered Clouds
3:15 PM 72.0 °F 68.9 °F 90% 30.04 in 10.0 mi SSE 5.8 mph - N/A   Mostly Cloudy
3:35 PM 71.6 °F 69.1 °F 92% 30.03 in 10.0 mi WSW 3.5 mph - N/A   Overcast
3:55 PM 72.9 °F 69.6 °F 90% 30.03 in 10.0 mi SSE 4.6 mph - N/A   Scattered Clouds
4:15 PM 72.9 °F 68.9 °F 87% 30.03 in 10.0 mi SSE 8.1 mph - N/A   Clear
4:35 PM 72.5 °F 68.9 °F 88% 30.04 in 10.0 mi South 3.5 mph - N/A   Clear
4:55 PM 72.1 °F 68.4 °F 88% 30.04 in 10.0 mi South 4.6 mph - N/A   Clear
5:15 PM 72.0 °F 68.5 °F 89% 30.04 in 10.0 mi Calm Calm - N/A   Clear
5:35 PM 72.3 °F 68.2 °F 87% 30.05 in 10.0 mi Calm Calm - N/A   Clear
5:55 PM 71.1 °F 68.2 °F 91% 30.04 in 10.0 mi Calm Calm - N/A   Clear
6:15 PM 70.7 °F 68.9 °F 94% 30.05 in 10.0 mi Calm Calm - N/A   Clear
6:35 PM 70.2 °F 69.8 °F 99% 30.05 in 10.0 mi Calm Calm - N/A   Clear
6:55 PM 69.8 °F 69.8 °F 100% 30.05 in 10.0 mi Calm Calm - N/A   Clear
7:15 PM 69.3 °F 69.3 °F 100% 30.06 in 10.0 mi Calm Calm - N/A   Scattered Clouds
7:35 PM 68.9 °F 68.9 °F 100% 30.06 in 10.0 mi Calm Calm - N/A   Scattered Clouds
7:55 PM 67.3 °F 67.3 °F 100% 30.07 in 10.0 mi Calm Calm - N/A   Clear
8:15 PM 66.7 °F 66.7 °F 100% 30.08 in 10.0 mi Calm Calm - N/A   Scattered Clouds
8:35 PM 66.0 °F 66.0 °F 100% 30.08 in 10.0 mi Calm Calm - N/A   Mostly Cloudy
8:55 PM 66.2 °F 66.2 °F 100% 30.08 in 10.0 mi Calm Calm - N/A   Overcast
9:15 PM 66.2 °F 66.2 °F 100% 30.08 in 10.0 mi Calm Calm - N/A   Scattered Clouds
9:35 PM 64.9 °F 64.9 °F 100% 30.09 in 5.0 mi SE 3.5 mph - N/A   Scattered Clouds
9:55 PM 64.8 °F 64.8 °F 100% 30.09 in 7.0 mi East 3.5 mph - N/A   Scattered Clouds
10:15 PM 65.1 °F 65.1 °F 100% 30.09 in 7.0 mi Calm Calm - N/A   Clear
10:35 PM 64.6 °F 64.6 °F 100% 30.09 in 5.0 mi ESE 3.5 mph - N/A   Clear
10:55 PM 64.0 °F 64.0 °F 100% 30.08 in 4.0 mi Calm Calm - N/A   Clear
11:15 PM 64.6 °F 64.6 °F 100% 30.08 in 5.0 mi Calm Calm - N/A   Clear
11:35 PM 62.4 °F 62.4 °F 100% 30.08 in 5.0 mi Calm Calm - N/A   Clear
11:55 PM 62.8 °F 62.8 °F 100% 30.07 in 7.0 mi Calm Calm - N/A   Clear